Terminal Aerodrome Forecast
Issued by NWS San Angelo, TX

Home | Current Version | Previous Version | Text Only | Print | Product List | Glossary On
Versions: 1 2 3 4 5 6 7 8 9 10 11 12 13 14 15 16 17
000
FTUS44 KSJT 191400 AAA
TAFABI
TAF AMD
KABI 191440Z 1915/2012 VRB06KT 4SM BR OVC005
     FM191700 VRB06KT P6SM OVC015
     FM192000 03006KT P6SM BKN025
     FM192300 03005KT P6SM SCT025 BKN035
     FM200200 09006KT P6SM BKN025=

USA.gov is the U.S. government's official web portal to all federal, state and local government web resources and services.